Date,TemperatureHighF,TemperatureAvgF,TemperatureLowF,DewpointHighF,DewpointAvgF,DewpointLowF,HumidityHigh,HumidityAvg,HumidityLow,PressureMaxIn,PressureMinIn,WindSpeedMaxMPH,WindSpeedAvgMPH,GustSpeedMaxMPH,PrecipitationSumIn
2013-2-1,52,48,44,51,47,43,98,97,94,30.38,30.25,11,3,14,0.01
2013-2-2,56,50,47,50,45,41,96,84,66,30.35,30.24,18,8,24,0.00
2013-2-3,51,49,47,49,47,45,95,93,91,30.36,30.27,10,3,17,0.00
2013-2-4,52,48,45,49,46,44,96,93,88,30.28,29.99,21,6,31,0.00
2013-2-5,53,49,47,51,48,45,96,93,87,30.08,29.93,28,14,36,0.29
2013-2-6,51,48,43,48,46,42,96,91,81,30.11,29.85,20,11,35,0.42
2013-2-7,48,44,39,45,42,37,96,93,88,30.20,29.95,24,7,32,0.45
2013-2-8,48,41,34,44,38,33,97,91,80,30.33,30.20,23,6,27,0.01
2013-2-9,48,44,40,47,43,38,97,96,93,30.31,30.28,7,3,11,0.10
2013-2-10,49,47,45,47,44,42,98,93,82,30.36,30.30,12,2,17,0.07
2013-2-11,49,47,43,48,45,41,97,94,91,30.43,30.35,12,4,18,0.05
2013-2-12,51,50,49,50,49,48,98,98,97,30.52,30.42,15,8,19,0.18
2013-2-13,50,48,46,49,48,45,98,97,95,30.55,30.47,13,5,16,0.18
2013-2-14,53,48,44,51,47,43,97,96,93,30.60,30.50,9,1,12,0.01
2013-2-15,54,47,41,50,46,40,98,95,84,30.50,30.21,11,4,14,0.00
2013-2-16,51,48,45,50,46,42,98,94,85,30.34,30.27,16,6,21,0.08
2013-2-17,48,44,40,45,41,38,96,91,84,30.34,30.13,16,3,22,0.09
2013-2-18,48,42,39,45,41,38,96,94,87,30.13,29.75,12,5,21,0.39
2013-2-19,49,44,38,45,41,36,96,90,78,30.06,29.69,14,6,19,0.40
2013-2-20,47,42,35,46,40,34,96,94,84,30.14,30.05,24,7,35,0.42
2013-2-21,48,46,44,47,44,40,97,92,79,30.24,30.14,26,11,34,0.57
2013-2-22,49,47,43,48,46,40,97,93,82,30.22,29.96,31,19,51,1.07
2013-2-23,48,45,42,43,41,38,93,85,77,30.45,30.14,25,4,38,0.01
2013-2-24,51,46,42,46,42,39,92,86,73,30.45,30.06,22,8,33,0.09
2013-2-25,49,46,42,48,42,38,95,85,73,30.43,30.05,28,14,39,0.36
2013-2-26,52,45,39,45,40,37,95,85,71,30.42,30.26,13,5,20,0.01
2013-2-27,51,48,46,49,46,41,97,92,82,30.32,30.22,10,4,16,0.08
2013-2-28,52,52,49,51,50,48,98,97,96,30.46,30.21,22,16,36,0.86